Sussex, NJ

5:13 PM EST on December 12, 2019 (GMT -0500)
Sussex

Weather History for KFWN - November, 2019

Change the Weather History Date:

Friday, November 15, 2019

  Actual Average Record
Temperature  
Mean Temperature 36 °F -  
Max Temperature 52 °F 49 °F 70 °F (1973)
Min Temperature 21 °F 29 °F 14 °F (1986)
Degree Days  
Heating Degree Days 28    
Moisture  
Dew Point 22 °F    
Average Humidity 61    
Maximum Humidity 89    
Minimum Humidity 27    
Precipitation  
Precipitation 0.00 in - - ()
Sea Level Pressure  
Sea Level Pressure 30.21 in    
Wind  
Wind Speed 2 mph ()    
Max Wind Speed 9 mph    
Max Gust Speed -    
Visibility 10.0 miles    
Events      
Averages and records for this station are not official NWS values.
T = Trace of Precipitation, MM = Missing Value Source: Averaged Metar Reports

Daily Weather History Graph

Daily Weather History Graph

Search for Another Location

Airport or City:

Astronomy

Nov. 15, 2019 Rise Set
Actual Time 6:46 AM EST 4:39 PM EST
Civil Twilight 6:16 AM EST 5:09 PM EST
Nautical Twilight 5:43 AM EST 5:42 PM EST
Astronomical Twilight 5:10 AM EST 6:14 PM EST
Moon 7:11 PM EST (11/15) 9:41 AM EST (11/15)
Length of Visible Light 10h 52m
Length of Day
9h 53m
Waning Gibbous, 90% of the Moon is Illuminated
Nov 15
Waning Gibbous
Nov 19
Last Quarter
Nov 26
New
Dec 4
First Quarter
Dec 12
Full

Hourly Weather History & Observations

Time (EST) Temp. Windchill Dew Point Humidity Pressure Visibility Wind Dir Wind Speed Gust Speed Precip Events Conditions
12:53 AM 25.0 °F - 19.9 °F 81% 30.26 in 10.0 mi Calm Calm - 0.00 in   Partly Cloudy
1:53 AM 24.1 °F - 19.9 °F 84% 30.25 in 10.0 mi Calm Calm - N/A   Clear
2:53 AM 23.0 °F - 19.0 °F 85% 30.23 in 10.0 mi Calm Calm - 0.00 in   Clear
3:53 AM 23.0 °F - 19.0 °F 85% 30.23 in 10.0 mi Calm Calm - 0.00 in   Clear
4:53 AM 21.9 °F - 19.0 °F 89% 30.23 in 10.0 mi Calm Calm - N/A   Clear
5:53 AM 21.9 °F 17.2 °F 19.0 °F 89% 30.24 in 10.0 mi WSW 3.5 mph - 0.00 in   Clear
6:53 AM 23.0 °F - 19.0 °F 85% 30.24 in 9.0 mi Calm Calm - 0.00 in   Clear
7:53 AM 25.0 °F - 21.0 °F 85% 30.25 in 10.0 mi Calm Calm - N/A   Clear
8:53 AM 32.0 °F 28.7 °F 25.0 °F 75% 30.24 in 10.0 mi SSW 3.5 mph - N/A   Clear
9:53 AM 39.0 °F 33.4 °F 24.1 °F 55% 30.22 in 10.0 mi SSW 8.1 mph - N/A   Clear
10:53 AM 43.0 °F 38.8 °F 23.0 °F 45% 30.19 in 10.0 mi Variable 6.9 mph - N/A   Clear
11:53 AM 48.9 °F - 23.0 °F 36% 30.16 in 10.0 mi Variable 5.8 mph - N/A   Clear
12:53 PM 50.0 °F - 21.9 °F 33% 30.14 in 10.0 mi Variable 3.5 mph - N/A   Clear
1:53 PM 52.0 °F - 21.0 °F 30% 30.12 in 10.0 mi Variable 3.5 mph - N/A   Clear
2:53 PM 52.0 °F - 19.0 °F 27% 30.13 in 10.0 mi SW 8.1 mph - N/A   Clear
3:53 PM 50.0 °F - 19.0 °F 29% 30.14 in 10.0 mi Variable 3.5 mph - N/A   Clear
4:53 PM 46.9 °F - 23.0 °F 39% 30.15 in 10.0 mi Variable 3.5 mph - N/A   Clear
5:53 PM 42.1 °F - 24.1 °F 49% 30.17 in 10.0 mi Calm Calm - N/A   Clear
6:53 PM 36.0 °F - 24.1 °F 62% 30.18 in 10.0 mi Calm Calm - N/A   Clear
7:53 PM 39.9 °F 33.9 °F 26.1 °F 58% 30.21 in 10.0 mi NW 9.2 mph - N/A   Unknown
8:53 PM 39.9 °F 35.1 °F 27.0 °F 60% 30.24 in 10.0 mi Variable 6.9 mph - N/A   Clear
9:53 PM 37.9 °F - 27.0 °F 65% 30.25 in 10.0 mi Calm Calm - N/A   Mostly Cloudy
10:53 PM 39.0 °F 34.0 °F 23.0 °F 53% 30.26 in 10.0 mi North 6.9 mph - N/A   Clear
11:53 PM 37.9 °F 32.1 °F 24.1 °F 57% 30.26 in 10.0 mi North 8.1 mph - N/A   Clear